H1 CPF 2 NER 2024 3 6 9 066 01 glonass127 H2 1106403 9127 37869 2024 3 6 0 0 0 2024 3 9 23 45 0 900 1 1 0 0 0 1 H9 10 0 60375 0.00000 0 5343825.888 12126184.139 21854894.141 10 0 60375 900.00000 0 4296359.245 14512258.579 20588733.893 10 0 60375 1800.00000 0 3491567.339 16801769.999 18924821.178 10 0 60375 2700.00000 0 2924454.425 18928453.814 16895015.176 10 0 60375 3600.00000 0 2578000.765 20829843.029 14538274.773 10 0 60375 4500.00000 0 2424072.855 22449736.209 11899938.916 10 0 60375 5400.00000 0 2424809.216 23740429.874 9030880.493 10 0 60375 6300.00000 0 2534425.765 24664621.864 5986547.320 10 0 60375 7200.00000 0 2701366.743 25196904.678 2825906.512 10 0 60375 8100.00000 0 2870711.925 25324783.984 -389688.912 10 0 60375 9000.00000 0 2986738.982 25049176.656 -3597690.073 10 0 60375 9900.00000 0 2995532.205 24384364.268 -6735575.744 10 0 60375 10800.00000 0 2847525.675 23357400.924 -9742084.702 10 0 60375 11700.00000 0 2499870.693 22006997.760 -12558431.377 10 0 60375 12600.00000 0 1918524.002 20381929.231 -15129478.947 10 0 60375 13500.00000 0 1079964.647 18539027.346 -17404844.527 10 0 60375 14400.00000 0 -27537.010 16540848.358 -19339912.267 10 0 60375 15300.00000 0 -1403155.424 14453111.055 -20896732.011 10 0 60375 16200.00000 0 -3033286.523 12342016.084 -22044783.707 10 0 60375 17100.00000 0 -4891876.672 10271561.102 -22761590.825 10 0 60375 18000.00000 0 -6941291.511 8300966.762 -23033169.467 10 0 60375 18900.00000 0 -9133688.601 6482323.611 -22854303.750 10 0 60375 19800.00000 0 -11412835.813 4858560.052 -22228641.977 10 0 60375 20700.00000 0 -13716297.935 3461817.282 -21168612.247 10 0 60375 21600.00000 0 -15977898.175 2312299.033 -19695160.185 10 0 60375 22500.00000 0 -18130349.521 1417642.992 -17837315.422 10 0 60375 23400.00000 0 -20107943.909 772837.994 -15631597.114 10 0 60375 24300.00000 0 -21849185.160 360687.253 -13121272.215 10 0 60375 25200.00000 0 -23299254.620 152794.433 -10355483.165 10 0 60375 26100.00000 0 -24412206.165 111027.082 -7388264.231 10 0 60375 27000.00000 0 -25152799.510 189391.821 -4277467.729 10 0 60375 27900.00000 0 -25497896.704 336238.750 -1083622.814 10 0 60375 28800.00000 0 -25437365.672 496699.225 2131249.560 10 0 60375 29700.00000 0 -24974455.933 615252.214 5304841.642 10 0 60375 30600.00000 0 -24125633.837 638310.009 8375760.218 10 0 60375 31500.00000 0 -22919887.269 516714.255 11284701.395 10 0 60375 32400.00000 0 -21397531.508 208038.040 13975577.183 10 0 60375 33300.00000 0 -19608567.994 -321401.332 16396573.810 10 0 60375 34200.00000 0 -17610665.510 -1094901.599 18501123.489 10 0 60375 35100.00000 0 -15466847.870 -2124173.776 20248773.467 10 0 60375 36000.00000 0 -13242983.279 -3408628.139 21605938.292 10 0 60375 36900.00000 0 -11005177.814 -4935176.868 22546523.391 10 0 60375 37800.00000 0 -8817178.605 -6678561.455 23052410.288 10 0 60375 38700.00000 0 -6737891.442 -8602192.120 23113795.887 10 0 60375 39600.00000 0 -4819112.676 -10659466.077 22729380.385 10 0 60375 40500.00000 0 -3103566.645 -12795512.490 21906400.501 10 0 60375 41400.00000 0 -1623327.789 -14949294.894 20660506.797 10 0 60375 42300.00000 0 -398691.513 -17055987.213 19015486.078 10 0 60375 43200.00000 0 562459.837 -19049528.154 17002832.138 10 0 60375 44100.00000 0 1264769.121 -20865250.782 14661170.468 10 0 60375 45000.00000 0 1724988.852 -22442480.066 12035545.116 10 0 60375 45900.00000 0 1971053.562 -23726991.428 9176578.478 10 0 60375 46800.00000 0 2040676.944 -24673227.794 6139517.454 10 0 60375 47700.00000 0 1979530.681 -25246181.398 2983182.163 10 0 60375 48600.00000 0 1839080.016 -25422859.516 -231164.128 10 0 60375 49500.00000 0 1674166.390 -25193269.782 -3441002.789 10 0 60375 50400.00000 0 1540439.209 -24560880.372 -6583782.269 10 0 60375 51300.00000 0 1491746.302 -23542532.309 -9598150.625 10 0 60375 52200.00000 0 1577595.446 -22167804.401 -12425172.615 10 0 60375 53100.00000 0 1840797.225 -20477855.008 -15009505.492 10 0 60375 54000.00000 0 2315392.403 -18523787.665 -17300508.112 10 0 60375 54900.00000 0 3024955.244 -16364608.612 -19253259.086 10 0 60375 55800.00000 0 3981348.181 -14064862.373 -20829461.546 10 0 60375 56700.00000 0 5183983.752 -11692045.849 -21998214.546 10 0 60375 57600.00000 0 6619627.622 -9313911.260 -22736634.230 10 0 60375 58500.00000 0 8262752.768 -6995773.148 -23030311.268 10 0 60375 59400.00000 0 10076430.796 -4797934.406 -22873594.915 10 0 60375 60300.00000 0 12013722.826 -2773340.853 -22269698.070 10 0 60375 61200.00000 0 14019510.534 -965563.674 -21230621.717 10 0 60375 62100.00000 0 16032688.934 592805.666 -19776901.273 10 0 60375 63000.00000 0 17988626.917 1881281.632 -17937181.261 10 0 60375 63900.00000 0 19821790.266 2892086.645 -15747628.430 10 0 60375 64800.00000 0 21468415.282 3630206.512 -13251196.896 10 0 60375 65700.00000 0 22869119.557 4112900.512 -10496761.808 10 0 60375 66600.00000 0 23971339.658 4368690.749 -7538140.699 10 0 60375 67500.00000 0 24731493.673 4435877.475 -4433023.652 10 0 60375 68400.00000 0 25116778.877 4360646.836 -1241834.905 10 0 60375 69300.00000 0 25106530.924 4194854.206 1973450.532 10 0 60375 70200.00000 0 24693089.975 3993579.169 5150511.380 10 0 60375 71100.00000 0 23882140.224 3812556.884 8227882.112 10 0 60375 72000.00000 0 22692511.459 3705594.732 11146129.509 10 0 60375 72900.00000 0 21155453.534 3722082.692 13848982.096 10 0 60375 73800.00000 0 19313416.088 3904701.072 16284392.258 10 0 60375 74700.00000 0 17218385.720 4287420.169 18405512.697 10 0 60375 75600.00000 0 14929850.147 4893873.870 20171570.922 10 0 60375 76500.00000 0 12512473.359 5736173.448 21548627.598 10 0 60375 77400.00000 0 10033576.680 6814209.721 22510206.747 10 0 60375 78300.00000 0 7560527.814 8115471.988 23037787.993 10 0 60375 79200.00000 0 5158143.092 9615391.417 23121153.185 10 0 60375 80100.00000 0 2886207.349 11278195.704 22758581.864 10 0 60375 81000.00000 0 797211.031 13058241.457 21956892.141 10 0 60375 81900.00000 0 -1065604.433 14901771.668 20731325.678 10 0 60375 82800.00000 0 -2669813.928 16749028.428 19105277.647 10 0 60375 83700.00000 0 -3994924.735 18536636.422 17109874.825 10 0 60375 84600.00000 0 -5032995.216 20200161.174 14783407.311 10 0 60375 85500.00000 0 -5788729.650 21676738.012 12170621.942 10 0 60376 0.00000 0 -6279043.851 22907663.735 9321888.305 10 0 60376 900.00000 0 -6532118.088 23840843.922 6292249.080 10 0 60376 1800.00000 0 -6585974.442 24432991.340 3140374.653 10 0 60376 2700.00000 0 -6486637.390 24651483.850 -72564.558 10 0 60376 3600.00000 0 -6285953.106 24475799.516 -3284083.341 10 0 60376 4500.00000 0 -6039159.188 23898465.981 -6431603.000 10 0 60376 5400.00000 0 -5802307.848 22925480.474 -9453683.963 10 0 60376 6300.00000 0 -5629652.859 21576179.161 -12291244.248 10 0 60376 7200.00000 0 -5571113.105 19882558.173 -14888737.877 10 0 60376 8100.00000 0 -5669923.063 17888072.477 -17195267.853 10 0 60376 9000.00000 0 -5960573.061 15645961.526 -19165609.341 10 0 60376 9900.00000 0 -6467129.992 13217171.608 -20761120.508 10 0 60376 10800.00000 0 -7202012.801 10667962.574 -21950520.930 10 0 60376 11700.00000 0 -8165277.282 8067300.583 -22710520.492 10 0 60376 12600.00000 0 -9344442.450 5484147.989 -23026285.120 10 0 60376 13500.00000 0 -10714866.945 2984765.828 -22891729.521 10 0 60376 14400.00000 0 -12240659.872 630143.671 -22309631.066 10 0 60376 15300.00000 0 -13876087.016 -1526334.232 -21291563.046 10 0 60376 16200.00000 0 -15567411.893 -3440888.267 -19857649.634 10 0 60376 17100.00000 0 -17255092.291 -5080924.891 -18036148.756 10 0 60376 18000.00000 0 -18876237.766 -6426135.334 -15862872.867 10 0 60376 18900.00000 0 -20367222.709 -7469067.874 -13380461.008 10 0 60376 19800.00000 0 -21666343.359 -8215152.955 -10637518.544 10 0 60376 20700.00000 0 -22716405.875 -8682183.907 -7687643.590 10 0 60376 21600.00000 0 -23467136.228 -8899279.306 -4588361.187 10 0 60376 22500.00000 0 -23877311.008 -8905374.826 -1399987.761 10 0 60376 23400.00000 0 -23916520.790 -8747311.857 1815550.552 10 0 60376 24300.00000 0 -23566493.867 -8477606.630 4995921.913 10 0 60376 25200.00000 0 -22821927.180 -8151996.083 8079591.424 10 0 60376 26100.00000 0 -21690792.170 -7826865.134 11006999.437 10 0 60376 27000.00000 0 -20194105.248 -7556663.892 13721693.767 10 0 60376 27900.00000 0 -18365174.577 -7391422.721 16171395.544 10 0 60376 28800.00000 0 -16248356.060 -7374468.108 18308980.281 10 0 60376 29700.00000 0 -13897370.946 -7540433.219 20093357.719 10 0 60376 30600.00000 0 -11373254.651 -7913644.434 21490236.216 10 0 60376 31500.00000 0 -8742020.627 -8506949.473 22472759.519 10 0 60376 32400.00000 0 -6072133.964 -9321034.731 23022006.044 10 0 60376 33300.00000 0 -3431896.463 -10344259.736 23127342.856 10 0 60376 34200.00000 0 -886848.205 -11553015.937 22786628.718 10 0 60376 35100.00000 0 1502710.174 -12912596.224 22006262.676 10 0 60376 36000.00000 0 3683975.006 -14378541.115 20801076.736 10 0 60376 36900.00000 0 5613585.860 -15898408.400 19194073.415 10 0 60376 37800.00000 0 7259181.548 -17413895.724 17216011.198 10 0 60376 38700.00000 0 8600502.004 -18863230.855 14904843.270 10 0 60376 39600.00000 0 9629989.977 -20183732.728 12305017.479 10 0 60376 40500.00000 0 10352866.461 -21314438.414 9466648.034 10 0 60376 41400.00000 0 10786675.012 -22198687.278 6444572.139 10 0 60376 42300.00000 0 10960312.073 -22786554.094 3297307.457 10 0 60376 43200.00000 0 10912581.958 -23037027.834 85928.889 10 0 60376 44100.00000 0 10690335.642 -22919842.410 -3127114.553 10 0 60376 45000.00000 0 10346270.704 -22416879.226 -6279219.858 10 0 60376 45900.00000 0 9936485.044 -21523078.867 -9308862.669 10 0 60376 46800.00000 0 9517888.502 -20246819.679 -12156817.053 10 0 60376 47700.00000 0 9145583.440 -18609743.643 -14767336.506 10 0 60376 48600.00000 0 8870327.625 -16646033.795 -17089270.727 10 0 60376 49500.00000 0 8736189.730 -14401171.264 -19077093.780 10 0 60376 50400.00000 0 8778499.982 -11930222.911 -20691820.932 10 0 60376 51300.00000 0 9022185.817 -9295731.166 -21901794.007 10 0 60376 52200.00000 0 9480565.783 -6565295.188 -22683317.976 10 0 60376 53100.00000 0 10154654.824 -3808946.097 -23021134.975 10 0 60376 54000.00000 0 11033011.671 -1096427.912 -22908725.704 10 0 60376 54900.00000 0 12092135.230 1505500.213 -22348432.177 10 0 60376 55800.00000 0 13297392.810 3935625.989 -21351399.825 10 0 60376 56700.00000 0 14604439.775 6140602.100 -19937341.078 10 0 60376 57600.00000 0 15961068.937 8076923.293 -18134126.464 10 0 60376 58500.00000 0 17309409.523 9712480.423 -15977213.024 10 0 60376 59400.00000 0 18588380.709 11027628.223 -13508923.283 10 0 60376 60300.00000 0 19736294.256 12015724.765 -10777591.026 10 0 60376 61200.00000 0 20693494.909 12683123.459 -7836592.801 10 0 60376 62100.00000 0 21404926.327 13048621.998 -4743286.120 10 0 60376 63000.00000 0 21822514.263 13142395.597 -1557876.833 10 0 60376 63900.00000 0 21907267.248 13004463.486 1657760.797 10 0 60376 64800.00000 0 21631007.755 12682756.784 4841287.483 10 0 60376 65700.00000 0 20977662.987 12230871.929 7931102.103 10 0 60376 66600.00000 0 19944063.383 11705606.078 10867521.672 10 0 60376 67500.00000 0 18540217.712 11164378.990 13593916.260 10 0 60376 68400.00000 0 16789055.318 10662649.542 16057778.529 10 0 60376 69300.00000 0 14725647.900 10251434.271 18211709.371 10 0 60376 70200.00000 0 12395944.075 9975030.189 20014303.095 10 0 60376 71100.00000 0 9855069.303 9869035.140 21430917.817 10 0 60376 72000.00000 0 7165260.776 9958746.267 22434318.783 10 0 60376 72900.00000 0 4393520.951 10258001.651 23005184.638 10 0 60376 73800.00000 0 1609084.184 10768512.166 23132468.720 10 0 60376 74700.00000 0 -1119201.860 11479710.967 22813609.650 10 0 60376 75600.00000 0 -3725475.158 12369127.363 22054587.569 10 0 60376 76500.00000 0 -6149334.455 13403270.957 20869824.491 10 0 60376 77400.00000 0 -8338090.926 14538991.405 19281929.439 10 0 60376 78300.00000 0 -10248705.273 15725259.938 17321291.278 10 0 60376 79200.00000 0 -11849331.132 16905301.352 15025524.510 10 0 60376 80100.00000 0 -13120400.892 18018990.333 12438775.851 10 0 60376 81000.00000 0 -14055208.061 19005414.322 9610901.956 10 0 60376 81900.00000 0 -14659960.449 19805497.225 6596531.355 10 0 60376 82800.00000 0 -14953299.947 20364574.460 3454026.390 10 0 60376 83700.00000 0 -14965306.931 20634810.617 244363.465 10 0 60376 84600.00000 0 -14736029.055 20577356.294 -2970047.668 10 0 60376 85500.00000 0 -14313594.854 20164150.572 -6126582.785 10 0 60377 0.00000 0 -13751990.908 19379289.750 -9163635.560 10 0 60377 900.00000 0 -13108596.141 18219900.281 -12021839.656 10 0 60377 1800.00000 0 -12441579.251 16696476.282 -14645250.598 10 0 60377 2700.00000 0 -11807270.167 14832662.383 -16982467.391 10 0 60377 3600.00000 0 -11257619.956 12664489.076 -18987665.307 10 0 60377 4500.00000 0 -10837859.296 10239090.284 -20621518.717 10 0 60377 5400.00000 0 -10584457.637 7612956.014 -21851993.344 10 0 60377 6300.00000 0 -10523472.081 4849793.339 -22654990.544 10 0 60377 7200.00000 0 -10669358.102 2018086.161 -23014829.587 10 0 60377 8100.00000 0 -11024293.815 -811542.656 -22924557.724 10 0 60377 9000.00000 0 -11578047.008 -3569054.712 -22386081.769 10 0 60377 9900.00000 0 -12308390.232 -6187689.425 -21410119.040 10 0 60377 10800.00000 0 -13182045.294 -8606513.387 -20015969.559 10 0 60377 11700.00000 0 -14156115.432 -10772718.453 -18231115.390 10 0 60377 12600.00000 0 -15179942.380 -12643572.556 -16090656.720 10 0 60377 13500.00000 0 -16197307.395 -14187942.783 -13636597.790 10 0 60377 14400.00000 0 -17148880.872 -15387329.023 -10916998.772 10 0 60377 15300.00000 0 -17974815.010 -16236367.830 -7985012.404 10 0 60377 16200.00000 0 -18617368.552 -16742789.062 -4897826.254 10 0 60377 17100.00000 0 -19023452.034 -16926831.142 -1715533.031 10 0 60377 18000.00000 0 -19146986.179 -16820143.669 1500047.547 10 0 60377 18900.00000 0 -18950974.832 -16464227.353 4686571.536 10 0 60377 19800.00000 0 -18409206.642 -15908480.154 7782374.479 10 0 60377 20700.00000 0 -17507515.836 -15207934.183 10727652.991 10 0 60377 21600.00000 0 -16244551.349 -14420779.889 13465602.336 10 0 60377 22500.00000 0 -14632024.142 -13605781.853 15943489.577 10 0 60377 23400.00000 0 -12694424.031 -12819693.920 18113643.689 10 0 60377 24300.00000 0 -10468218.955 -12114780.510 19934345.990 10 0 60377 25200.00000 0 -8000570.179 -11536545.701 21370606.473 10 0 60377 26100.00000 0 -5347616.199 -11121762.696 22394813.614 10 0 60377 27000.00000 0 -2572394.839 -10896883.632 22987247.595 10 0 60377 27900.00000 0 257512.821 -10876894.183 23136448.916 10 0 60377 28800.00000 0 3072522.291 -11064659.519 22839436.529 10 0 60377 29700.00000 0 5803667.659 -11450788.521 22101771.757 10 0 60377 30600.00000 0 8385200.813 -12014022.538 20937466.349 10 0 60377 31500.00000 0 10757063.445 -12722133.988 19368735.223 10 0 60377 32400.00000 0 12867132.060 -13533299.567 17425596.680 10 0 60377 33300.00000 0 14673144.600 -14397893.443 15145325.263 10 0 60377 34200.00000 0 16144229.350 -15260628.288 12571764.914 10 0 60377 35100.00000 0 17261972.260 -16062957.134 9754512.729 10 0 60377 36000.00000 0 18020976.982 -16745637.307 6747986.201 10 0 60377 36900.00000 0 18428892.353 -17251349.903 3610389.645 10 0 60377 37800.00000 0 18505903.935 -17527264.655 402598.000 10 0 60377 38700.00000 0 18283708.654 -17527441.059 -2813021.406 10 0 60377 39600.00000 0 17804013.649 -17214962.314 -5973826.374 10 0 60377 40500.00000 0 17116621.128 -16563708.908 -9018132.362 10 0 60377 41400.00000 0 16277179.412 -15559693.252 -11886434.657 10 0 60377 42300.00000 0 15344695.419 -14201894.959 -14522594.312 10 0 60377 43200.00000 0 14378914.879 -12502557.630 -16874962.353 10 0 60377 44100.00000 0 13437682.999 -10486931.096 -18897417.708 10 0 60377 45000.00000 0 12574399.693 -8192467.259 -20550295.963 10 0 60377 45900.00000 0 11835679.684 -5667501.511 -21801188.505 10 0 60377 46800.00000 0 11259319.085 -2969474.313 -22625594.453 10 0 60377 47700.00000 0 10872656.665 -162767.691 -23007411.193 10 0 60377 48600.00000 0 10691400.658 2683751.764 -22939253.106 10 0 60377 49500.00000 0 10718971.464 5499379.082 -22422592.023 10 0 60377 50400.00000 0 10946387.868 8214293.897 -21467717.013 10 0 60377 51300.00000 0 11352700.543 10762244.792 -20093515.245 10 0 60377 52200.00000 0 11905952.688 13083081.673 -18327079.574 10 0 60377 53100.00000 0 12564624.793 15125029.791 -16203152.304 10 0 60377 54000.00000 0 13279499.712 16846610.750 -13763418.069 10 0 60377 54900.00000 0 13995866.397 18218131.485 -11055661.797 10 0 60377 55800.00000 0 14655966.555 19222681.149 -8132810.460 10 0 60377 56700.00000 0 15201578.697 19856597.289 -5051879.419 10 0 60377 57600.00000 0 15576628.965 20129385.450 -1872845.703 10 0 60377 58500.00000 0 15729717.836 20063099.576 1342528.292 10 0 60377 59400.00000 0 15616456.254 19691213.180 4531896.890 10 0 60377 60300.00000 0 15201513.659 19057032.224 7633535.300 10 0 60377 61200.00000 0 14460293.234 18211719.242 10587522.743 10 0 60377 62100.00000 0 13380165.861 17212013.551 13336882.615 10 0 60377 63000.00000 0 11961213.010 16117744.102 15828659.206 10 0 60377 63900.00000 0 10216449.232 14989238.994 18014912.241 10 0 60377 64800.00000 0 8171516.219 13884739.002 19853612.551 10 0 60377 65700.00000 0 5863861.733 12857921.276 21309424.276 10 0 60377 66600.00000 0 3341437.196 11955634.311 22354361.146 10 0 60377 67500.00000 0 660966.759 11215936.078 22968306.595 10 0 60377 68400.00000 0 -2114142.614 10666514.740 23139389.639 10 0 60377 69300.00000 0 -4916166.356 10323555.878 22864210.487 10 0 60377 70200.00000 0 -7675608.354 10191102.282 22147912.099 10 0 60377 71100.00000 0 -10323826.081 10260932.753 21004095.891 10 0 60377 72000.00000 0 -12795629.556 10512965.685 19454582.062 10 0 60377 72900.00000 0 -15031749.415 10916172.146 17529017.207 10 0 60377 73800.00000 0 -16981073.924 11429962.571 15264334.260 10 0 60377 74700.00000 0 -18602563.183 12005991.619 12704072.326 10 0 60377 75600.00000 0 -19866761.059 12590308.198 9897566.521 10 0 60377 76500.00000 0 -20756840.954 13125762.683 6899020.629 10 0 60377 77400.00000 0 -21269140.003 13554571.673 3766478.089 10 0 60377 78300.00000 0 -21413157.092 13820932.954 560709.402 10 0 60377 79200.00000 0 -21211012.219 13873579.911 -2655963.553 10 0 60377 80100.00000 0 -20696387.506 13668165.980 -5820883.672 10 0 60377 81000.00000 0 -19912992.428 13169375.778 -8872291.001 10 0 60377 81900.00000 0 -18912616.646 12352670.279 -11750546.001 10 0 60377 82800.00000 0 -17752852.180 11205588.343 -14399317.875 10 0 60377 83700.00000 0 -16494581.588 9728545.582 -16766712.366 10 0 60377 84600.00000 0 -15199339.573 7935092.999 -18806314.481 10 0 60377 85500.00000 0 -13926661.520 5851621.212 -20478123.122 10 0 60378 0.00000 0 -12731533.458 3516520.517 -21749356.957 10 0 60378 900.00000 0 -11662053.062 978829.264 -22595114.403 10 0 60378 1800.00000 0 -10757404.275 -1703569.971 -22998871.724 10 0 60378 2700.00000 0 -10046230.692 -4466134.534 -22952810.918 10 0 60378 3600.00000 0 -9545478.923 -7240130.500 -22457968.908 10 0 60378 4500.00000 0 -9259760.190 -9955282.388 -21524206.211 10 0 60378 5400.00000 0 -9181256.309 -12542491.105 -20169996.476 10 0 60378 6300.00000 0 -9290172.290 -14936504.948 -18422042.345 10 0 60378 7200.00000 0 -9555713.925 -17078430.984 -16314726.944 10 0 60378 8100.00000 0 -9937546.135 -18917981.505 -13889413.754 10 0 60378 9000.00000 0 -10387667.211 -20415362.220 -11193610.718 10 0 60378 9900.00000 0 -10852616.698 -21542724.685 -8280017.163 10 0 60378 10800.00000 0 -11275920.787 -22285124.593 -5205474.234 10 0 60378 11700.00000 0 -11600669.796 -22640948.971 -2029841.176 10 0 60378 12600.00000 0 -11772117.418 -22621797.967 1185179.150 10 0 60378 13500.00000 0 -11740191.526 -22251830.078 4377241.673 10 0 60378 14400.00000 0 -11461810.932 -21566601.874 7484563.732 10 0 60378 15300.00000 0 -10902911.544 -20611454.074 10447109.741 10 0 60378 16200.00000 0 -10040098.303 -19439514.008 13207733.915 10 0 60378 17100.00000 0 -8861855.354 -18109399.547 15713260.492 10 0 60378 18000.00000 0 -7369265.573 -16682720.940 17915482.642 10 0 60378 18900.00000 0 -5576210.818 -15221484.322 19772063.271 10 0 60378 19800.00000 0 -3509045.420 -13785503.678 21247323.040 10 0 60378 20700.00000 0 -1205756.547 -12429926.958 22312903.019 10 0 60378 21600.00000 0 1285354.500 -11202976.744 22948291.668 10 0 60378 22500.00000 0 3907417.181 -10143996.845 23141207.917 10 0 60378 23400.00000 0 6597093.047 -9281883.696 22887834.270 10 0 60378 24300.00000 0 9286949.743 -8633966.042 22192895.972 10 0 60378 25200.00000 0 11908012.962 -8205378.481 21069584.387 10 0 60378 26100.00000 0 14392394.223 -7988954.900 19539324.904 10 0 60378 27000.00000 0 16675888.796 -7965647.066 17631391.942 10 0 60378 27900.00000 0 18700438.597 -8105452.492 15382375.975 10 0 60378 28800.00000 0 20416359.340 -8368814.969 12835509.998 10 0 60378 29700.00000 0 21784239.906 -8708441.512 10039865.457 10 0 60378 30600.00000 0 22776434.254 -9071461.767 7049430.285 10 0 60378 31500.00000 0 23378082.099 -9401840.961 3922084.487 10 0 60378 32400.00000 0 23587613.433 -9642945.836 718491.201 10 0 60378 33300.00000 0 23416713.074 -9740155.455 -2499076.365 10 0 60378 34200.00000 0 22889743.965 -9643405.627 -5667949.588 10 0 60378 35100.00000 0 22042650.956 -9309557.345 -8726296.533 10 0 60378 36000.00000 0 20921389.302 -8704486.096 -11614346.210 10 0 60378 36900.00000 0 19579942.944 -7804800.012 -14275579.164 10 0 60378 37800.00000 0 18078015.953 -6599110.239 -16657858.819 10 0 60378 38700.00000 0 16478495.161 -5088795.823 -18714478.940 10 0 60378 39600.00000 0 14844792.577 -3288227.231 -20405104.099 10 0 60378 40500.00000 0 13238181.692 -1224436.104 -21696582.453 10 0 60378 41400.00000 0 11715242.367 1063756.954 -22563612.918 10 0 60378 42300.00000 0 10325524.281 3527120.968 -22989252.186 10 0 60378 43200.00000 0 9109529.314 6107841.813 -22965250.767 10 0 60378 44100.00000 0 8097099.076 8741720.750 -22492211.194 10 0 60378 45000.00000 0 7306275.937 11360650.792 -21579565.573 10 0 60378 45900.00000 0 6742684.889 13895265.532 -20245373.799 10 0 60378 46800.00000 0 6399460.768 16277647.902 -18515947.731 10 0 60378 47700.00000 0 6257721.457 18443984.042 -16425310.402 10 0 60378 48600.00000 0 6287564.050 20337050.403 -14014502.894 10 0 60378 49500.00000 0 6449538.465 21908429.888 -11330754.581 10 0 60378 50400.00000 0 6696532.723 23120365.035 -8426535.224 10 0 60378 51300.00000 0 6975986.958 23947172.325 -5358509.530 10 0 60378 52200.00000 0 7232339.778 24376160.927 -2186416.434 10 0 60378 53100.00000 0 7409601.545 24408020.467 1028103.486 10 0 60378 54000.00000 0 7453944.677 24056665.152 4222708.686 10 0 60378 54900.00000 0 7316201.348 23348544.295 7335561.646 10 0 60378 55800.00000 0 6954163.796 22321451.444 10306515.010 10 0 60378 56700.00000 0 6334591.642 21022884.642 13078256.804 10 0 60378 57600.00000 0 5434843.467 19508028.241 15597394.116 10 0 60378 58500.00000 0 4244066.046 17837441.481 17815456.337 10 0 60378 59400.00000 0 2763893.085 16074550.088 19689801.065 10 0 60378 60300.00000 0 1008625.447 14283044.245 21184407.901 10 0 60378 61200.00000 0 -995114.139 12524289.311 22270547.443 10 0 60378 62100.00000 0 -3209237.918 10854854.372 22927315.071 10 0 60378 63000.00000 0 -5585527.215 9324258.518 23142021.183 10 0 60378 63900.00000 0 -8067390.671 7973025.729 22910431.712 10 0 60378 64800.00000 0 -10591976.635 6831126.836 22236854.852 10 0 60378 65700.00000 0 -13092555.641 5916871.568 21134072.050 10 0 60378 66600.00000 0 -15501077.783 5236295.986 19623113.452 10 0 60378 67500.00000 0 -17750802.388 4783070.847 17732880.311 10 0 60378 68400.00000 0 -19778893.729 4538935.687 15499619.095 10 0 60378 69300.00000 0 -21528876.967 4474642.144 12966254.661 10 0 60378 70200.00000 0 -22952853.157 4551369.166 10181592.336 10 0 60378 71100.00000 0 -24013380.921 4722552.957 7199401.447 10 0 60378 72000.00000 0 -24684945.019 4936056.799 4077395.576 10 0 60378 72900.00000 0 -24954948.338 5136590.800 876127.373 10 0 60378 73800.00000 0 -24824183.008 5268280.164 -2342181.826 10 0 60378 74700.00000 0 -24306757.828 5277273.095 -5514855.114 10 0 60378 75600.00000 0 -23429482.129 5114276.630 -8579991.796 10 0 60378 76500.00000 0 -22230729.408 4736910.675 -11477692.594 10 0 60378 77400.00000 0 -20758826.779 4111777.367 -14151252.452 10 0 60378 78300.00000 0 -19070037.082 3216154.449 -16548295.341 10 0 60378 79200.00000 0 -17226218.684 2039237.056 -18621826.360 10 0 60378 80100.00000 0 -15292262.445 582871.678 -20331177.968 10 0 60378 81000.00000 0 -13333415.414 -1138252.004 -21642829.477 10 0 60378 81900.00000 0 -11412605.989 -3096962.052 -22531081.793 10 0 60378 82800.00000 0 -9587885.325 -5254504.410 -22978572.637 10 0 60378 83700.00000 0 -7910094.656 -7561945.053 -22976621.258 10 0 60378 84600.00000 0 -6420858.061 -9962015.010 -22525395.536 10 0 60378 85500.00000 0 -5150985.893 -12391319.784 -21633898.472 99